{"data":{"norad_id":45071,"epoch":"2026-09-20T01:26:36.958272Z","epoch_age_seconds":52403,"freshness":"FRESH","line1":"1 45071U 20006AD  26263.06014998  .00022585  00000+0  46394-3 0  9991","line2":"2 45071  53.1517  64.1905 0002717 193.2875 166.8062 15.45936442366780","mean_motion":15.45936442,"eccentricity":0.0002717,"inclination_deg":53.1517,"raan_deg":64.1905,"arg_perigee_deg":193.2875,"mean_anomaly_deg":166.8062,"bstar":0.00046394,"rev_number":36678,"period_min":93.147425785309,"perigee_km":426.77851367843,"apogee_km":430.47730973145,"semimajor_km":6806.7649117049,"source":"CELESTRAK","updated_at":"2026-09-20T09:00:38.223862Z"}}